Home   Weather   Great Falls   Past weeks
Flag for USA

Past Weather in Great Falls, Montana, USA — Yesterday and Last 2 Weeks

Now
43 °F

Light rain. Cloudy.


Feels Like: 34 °F
Forecast: 51 / 36 °F
Wind: 21 mph from Northeast

Location: Great Falls International Airport

Current Time: May 21, 2019 at 5:46:29 pm

Latest Report: May 21, 2019 at 4:53 pm


Visibility: 8 mi

Pressure: 29.88 "Hg (26.39 "Hg at 1015m altitude)

Humidity: 93%

Dew Point: 41 °F

Location of Great FallsLocation

Past Weather in Great Falls — Graph

°F

Great Falls Temperature Yesterday

Maximum temperature yesterday: 48 °F (at 11:53 am)
Minimum temperature yesterday: 37 °F (at 6:53 am)
Average temperature yesterday: 43 °F

High & Low Weather Summary for the Past Weeks

 TemperatureHumidityPressure
High79 °F (May 12, 2:53 pm)100% (May 7, 5:53 am)30.30 "Hg (May 7, 5:53 am)
Low27 °F (May 9, 5:53 am)19% (May 13, 2:53 pm)29.66 "Hg (May 17, 5:39 am)
Average49 °F71%29.92 "Hg
* Reported May 6 3:53 pm — May 21 3:53 pm, Great Falls. Weather by CustomWeather, © 2019

Note: Actual official high and low records may vary slightly from our data, if they occured in-between our weather recording intervals... More about our weather records

Advertising

Great Falls Weather History for the Previous 24 Hours

Scroll right to see more
 ConditionsComfort  
Time TempWeatherWind HumidityBarometerVisibility
3:53 pm
Tue, May 21
46 °FMore clouds than sun.21 mph73%29.85 "Hg10 mi
2:53 pm47 °FOvercast.17 mph74%29.83 "Hg10 mi
1:53 pm45 °FLight rain. More clouds than sun.15 mph86%29.84 "Hg10 mi
1:41 pm46 °FLight rain. More clouds than sun.14 mph83%29.79 "Hg10 mi
1:05 pm46 °FMore clouds than sun.17 mph79%29.79 "Hg10 mi
12:53 pm46 °FMore clouds than sun.17 mph79%29.83 "Hg10 mi
12:25 pm47 °FCloudy.14 mph74%29.78 "Hg10 mi
11:53 am50 °FOvercast.16 mph68%29.80 "Hg10 mi
11:12 am49 °FBroken clouds.7 mph64%29.78 "Hg10 mi
10:53 am49 °FPartly sunny.9 mph66%29.81 "Hg10 mi
10:40 am49 °FScattered clouds.10 mph69%29.77 "Hg10 mi
10:05 am49 °FPartly sunny.8 mph66%29.78 "Hg10 mi
9:53 am47 °FScattered clouds.8 mph71%29.81 "Hg10 mi
8:53 am46 °FScattered clouds.15 mph71%29.82 "Hg10 mi
7:53 am43 °FPartly sunny.10 mph79%29.83 "Hg10 mi
6:53 am39 °FOvercast.13 mph93%29.83 "Hg10 mi
5:53 am38 °FOvercast.7 mph97%29.83 "Hg10 mi
4:53 am35 °FPassing clouds.6 mph100%29.84 "Hg10 mi
3:53 am36 °FPassing clouds.5 mph100%29.84 "Hg10 mi
2:53 am40 °FOvercast.7 mph93%29.83 "Hg10 mi
1:53 am41 °FOvercast.7 mph89%29.83 "Hg10 mi
12:53 am41 °FOvercast.9 mph86%29.85 "Hg10 mi
11:53 pm
Mon, May 20
41 °FOvercast.7 mph86%29.86 "Hg10 mi
10:53 pm41 °FOvercast.14 mph82%29.88 "Hg10 mi
10:07 pm41 °FOvercast.13 mph82%29.84 "Hg10 mi
9:53 pm42 °FMostly cloudy.12 mph82%29.88 "Hg10 mi
9:05 pm43 °FMostly cloudy.12 mph79%29.83 "Hg10 mi
8:38 pm43 °FMostly cloudy.13 mph82%29.84 "Hg10 mi
7:53 pm45 °FMostly cloudy.15 mph76%29.90 "Hg10 mi
6:53 pm46 °FCloudy.16 mph71%29.90 "Hg10 mi
5:53 pm47 °FOvercast.18 mph66%29.91 "Hg10 mi
Weather by CustomWeather, © 2019

See weather overview